Hourly Weather Roundup
Issued by NWS Central Illinois

Home | Current Version | Previous Version | Text Only | Print | Product List | Glossary On
Versions: 1 2 3 4 5 6 7 8 9 10 11 12 13 14 15 16 17 18 19 20 21 22 23 24 25 26 27 28 29 30 31 32 33 34 35 36 37 38 39 40 41 42 43 44 45 46 47 48 49 50
000
NZUS43 KILX 281410
HWRILX

AREA WEATHER ROUNDUP
NATIONAL WEATHER SERVICE, LINCOLN IL
900 AM CDT MON JUL 28 2014


CITY           SKY/WX    TMP DP  RH WIND       PRES   REMARKS
BLOOMINGTON    SUNNY     62  53  72 N16       30.08R
CHAMPAIGN      SUNNY     63  57  81 N14       30.04R
DECATUR        SUNNY     66  55  67 N15       30.07R
FLORA          SUNNY     69  60  73 N9        30.05R
GALESBURG      SUNNY     65  55  71 N14       30.13R
JACKSONVILLE   MOSUNNY   68  62  79 NW6       30.11R
LACON          SUNNY     63  52  67 N13       30.08S
LAWRENCEVILLE  SUNNY     70  59  68 N13       30.03R
LITCHFIELD     CLOUDY    66  59  79 N7        30.09R
$$


CITY           SKY/WX    TMP DP  RH WIND       PRES   REMARKS
LINCOLN        SUNNY     67  56  67 N10G16    30.06R
MACOMB         CLOUDY    65  59  79 N12G17    30.14R
MATTOON        MOSUNNY   65  58  78 N13       30.04R
MT CARMEL AP   SUNNY     70  63  78 NW9       30.03R
OLNEY-NOBLE AP MOSUNNY   68  59  73 NW8       30.05R
PARIS          SUNNY     66  59  76 N9        30.04R
PEORIA         SUNNY     66  52  60 N8G18     30.10R
PONTIAC        SUNNY     64  55  72 N13       30.07R
RANTOUL        SUNNY     66  54  64 N14G20    30.05S
ROBINSON       SUNNY     69  59  69 N10G18    30.03R
SPRINGFIELD    SUNNY     69  58  67 N13       30.09R
TAYLORVILLE    MOSUNNY   64  59  82 N8        30.08R
$$

...REGIONAL REPORTS...


CITY           SKY/WX    TMP DP  RH WIND       PRES   REMARKS
CHICAGO O`HARE MOSUNNY   63  47  55 N16       30.05R
KANKAKEE       SUNNY     64  54  71 NW9       30.05R
MOLINE         SUNNY     65  51  60 N12G17    30.13R
MOUNT VERNON   SUNNY     70  61  73 N6        30.06R
PITTSFIELD     MOSUNNY   69  61  76 N6        30.13R
QUINCY         CLOUDY    65  60  84 N10       30.13R
ROCKFORD       MOSUNNY   62  48  60 N21G26    30.12R
$$


CITY           SKY/WX    TMP DP  RH WIND       PRES   REMARKS
BURLINGTON     SUNNY     66  55  67 N15       30.13R
CEDAR RAPIDS   SUNNY     65  52  62 N13       30.16R
DES MOINES     MOSUNNY   68  55  63 NE7       30.20R
KIRKSVILLE     CLOUDY    65  59  81 N7        30.18R
OTTUMWA        SUNNY     65  57  75 N12       30.17R
ST LOUIS       MOSUNNY   72  62  71 N10       30.10R
$$


CITY           SKY/WX    TMP DP  RH WIND       PRES   REMARKS
TERRE HAUTE    SUNNY     67  54  63 N13       30.01R
EVANSVILLE     MOSUNNY   71  60  68 N9        30.02R
INDIANAPOLIS   CLOUDY    63  56  78 NW14      29.98R
LAFAYETTE      MOSUNNY   66  56  70 N13       30.00R
MADISON        MOSUNNY   62  51  67 N12       30.13R
MILWAUKEE      MOSUNNY   59  44  57 N17G29    30.08R
$$




USA.gov is the U.S. government's official web portal to all federal, state and local government web resources and services.